Find Local Weather

World > North America > United States > Pennsylvania

Connie Mack Stadium, Pennsylvania Regional Weather

Lat: 40.00N, Lon: 75.17W
Wx Zone: PAZ071
Warning FLW WEATHER ALERT - (More Info. Click Here) Warning
Feedback
Expires:201806200100;;802645
ASUS41 KCTP 200003
RWRCTP

REGIONAL WEATHER ROUNDUP
NATIONAL WEATHER SERVICE STATE COLLEGE PA
800 PM EDT TUE JUN 19 2018

Note: "fair" indicates few or no clouds below 12,000 feet with no 
significant weather and/or obstructions to visibility.

* = STATION THAT DOES NOT REPORT PRECIPITATION /E.G. RAIN...SNOW...ETC/
    THUNDER OR FOG.


PAZ038>040-043-044-047-048-054-055-060>062-067>071-200100-
EASTERN PENNSYLVANIA
  
CITY           SKY/WX    TMP DP  RH WIND       PRES   REMARKS
SCRANTON       FAIR      75  54  47 N10       29.90R                  
MOUNT POCONO   FAIR      69  50  50 NW8       29.93R                  
ALLENTOWN      FAIR      80  54  40 N9        29.86R                  
QUAKERTOWN*    CLEAR     79  57  47 VRB7      29.86R                  
READING        FAIR      81  54  39 N6        29.85R                  
LANCASTER      FAIR      81  57  43 N7        29.86R                  
COATESVILLE    FAIR      79  57  47 N6        29.88R                  
POTTSTOWN      FAIR      78  54  43 N9        29.87R                  
BLUE BELL      FAIR      77  61  57 CALM      29.85R                  
DOYLESTOWN     FAIR      80  55  42 N3        29.84R                  
WILLOW GROVE   NOT AVBL                                               
NORTH PHILA    FAIR      84  55  36 N8        29.84R                  
PHILADELPHIA   FAIR      84  56  38 N10       29.82R                  
$$
  

SKY/WX - Weather  TMP - Temperature  DP - Dewpoint  RH - Relative Humidity
WIND - Wind Direction/Speed PRES - Barometric Pressure